Starlink 30316

operational
NORAD ID: 57673 Int'l Des: 2023-124 Owner: SPXS Country: US Constellation: starlink
LEOCIRCULAR

Starlink 30316について

説明を読み込み中...

リアルタイム位置

3D地球を読み込み中...

次回通過

高度履歴

Altitude vs Time

uPlot chart will show altitude changes over time

軌道要素

1 57673U 23124L 25258.84408162 .00000547 00000-0 30607-4 0 9991
2 57673 53.1609 299.2214 0001406 88.6793 271.4369 15.30196191116797
Epoch: Sep 15, 2025 • Age: 54 hours

現在のステータス

高度 491.2 km
速度 7.62 km/s
衛星直下点 -44.92°S, 120.32°E
打ち上げ日 Aug 22, 2023
運用期間 2 years
タイプ internet

技術仕様

分類 Payload
質量 730.00 kg
乾燥質量 700.00 kg
総質量 730.00 kg
長さ 0.30 m
直径 4.10 m
スパン 29.00 m
形状 Box + pan
製造者 SPXS
バスタイプ Starlink V2M
フェーズステータス In Orbit
所有者/国 SPXS/US

大規模コンステレーション

Loading constellations...